Flag for Algeria Weather past 2 weeks in Constantine, Algeria

Now
52 °F

Passing clouds.


Feels Like: 45 °F
Forecast: 38 / 45 °F
Wind: 25 mph from Southwest

Location: Constantine Airport

Current Time: Jan 31, 2015 at 1:47:07 AM

Latest Report: Jan 31, 2015 at 1:00 AM


Visibility: N/A

Pressure: 29.47 "Hg

Humidity: 77%

Dew point: 45 °F

Location of ConstantineLocation

Historic Weather in Constantine — Graph

°F

Constantine temperature yesterday

Maximum temperature yesterday: 59 °F (at 1:30 PM)
Minimum temperature yesterday: 45 °F (at 12:00 AM)
Average temperature yesterday: 51 °F

Past Weeks' High & Low Weather Summary

 TemperatureHumidityPressure
High63 °F (Jan 16, 2:30 PM)94% (Jan 16, 3:00 AM)30.24 "Hg (Jan 16, 3:00 AM)
Low30 °F (Jan 27, 4:00 AM)44% (Jan 19, 3:30 PM)29.50 "Hg (Jan 30, 3:30 PM)
Average41 °F80%29.95 "Hg
* Reported Midnight between Jan 15 and Jan 16 — Jan 31 12:30 AM, Constantine, Weather by CustomWeather, © 2014

Note: Actual official high and low records may vary slightly from our data, if they occured in-between our weather recording intervals... More about our weather records

Advertising

Constantine weather history for previous 24 hours

 ConditionsComfort  
Time TempWeatherWind HumidityBarometerVisibility
12:30 AM
Jan 31
52 °FPassing clouds.25 mph77%29.53 "HgN/A
12:00 AM54 °FPassing clouds.25 mph72%29.53 "HgN/A
11:30 PM
Jan 30
52 °FPassing clouds.21 mph77%29.53 "HgN/A
11:00 PM54 °FPassing clouds.18 mph72%29.53 "HgN/A
10:30 PM52 °FPassing clouds.18 mph77%29.53 "HgN/A
9:30 PM54 °FPassing clouds.21 mph72%29.53 "HgN/A
9:00 PM54 °FPassing clouds.20 mph72%29.53 "HgN/A
8:30 PM54 °FPassing clouds.21 mph72%29.53 "HgN/A
8:00 PM54 °FPassing clouds.18 mph77%29.53 "HgN/A
7:30 PM55 °FPassing clouds.18 mph72%29.53 "HgN/A
7:00 PM55 °FPassing clouds.16 mph67%29.53 "HgN/A
6:30 PM55 °FPassing clouds.16 mph67%29.53 "HgN/A
6:00 PM55 °FPassing clouds.16 mph67%29.53 "HgN/A
5:30 PM55 °FPartly sunny.15 mph67%29.53 "HgN/A
5:00 PM57 °FPartly sunny.18 mph67%29.53 "HgN/A
4:30 PM57 °FPartly sunny.17 mph67%29.50 "HgN/A
4:00 PM57 °FPartly sunny.22 mph67%29.50 "HgN/A
3:30 PM59 °FBroken clouds.23 mph63%29.50 "HgN/A
3:00 PM57 °FBroken clouds.21 mph67%29.53 "HgN/A
2:30 PM59 °FBroken clouds.23 mph63%29.53 "HgN/A
2:00 PM59 °FBroken clouds.24 mph63%29.53 "HgN/A
1:30 PM59 °FBroken clouds.23 mph68%29.53 "HgN/A
1:00 PM57 °FBroken clouds.23 mph67%29.59 "HgN/A
12:30 PM54 °FPartly sunny.17 mph77%29.59 "HgN/A
12:00 PM54 °FPartly sunny.18 mph72%29.59 "HgN/A
11:30 AM52 °FPartly sunny.13 mph72%29.62 "HgN/A
11:00 AM50 °FPartly sunny.15 mph76%29.62 "HgN/A
10:30 AM50 °FPartly sunny.21 mph71%29.59 "HgN/A
10:00 AM48 °FPartly sunny.22 mph76%29.59 "HgN/A
9:30 AM48 °FPartly sunny.23 mph71%29.59 "HgN/A
8:00 AM46 °FPartly sunny.18 mph71%29.59 "HgN/A
7:30 AM46 °FPassing clouds.18 mph66%29.59 "HgN/A
7:00 AM46 °FPassing clouds.23 mph66%29.59 "HgN/A
6:30 AM46 °FPassing clouds.18 mph66%29.59 "HgN/A
6:00 AM45 °FPassing clouds.16 mph71%29.62 "HgN/A
5:30 AM45 °FPassing clouds.18 mph71%29.62 "HgN/A
5:00 AM45 °FPassing clouds.18 mph71%29.62 "HgN/A
4:30 AM45 °FPassing clouds.16 mph71%29.62 "HgN/A
4:00 AM45 °FPassing clouds.16 mph71%29.65 "HgN/A
3:00 AM45 °FPassing clouds.18 mph76%29.65 "HgN/A
2:30 AM45 °FPassing clouds.18 mph76%29.65 "HgN/A
2:00 AM45 °FPassing clouds.18 mph76%29.71 "HgN/A
1:30 AM45 °FPassing clouds.18 mph76%29.71 "HgN/A
1:00 AM45 °FPassing clouds.18 mph76%29.71 "HgN/A
Weather by CustomWeather, © 2014

See weather overviewHow to use our weather pages